Location: Newark
(53.3503°N, 9.6158°W)
Time: 06:05:52
(UTC+00:00)

Envisat - Pass Details

Date: 01 November 2019
Orbit: 764 x 766 km, 98.1° (Epoch: 19 November)

Event Time Altitude Azimuth Distance (km) Brightness Sun altitude
Rises 18:25:46 0° 164° (SSE) 3,223 6.2 -12.1°
Reaches altitude 10° 18:28:04 10° 165° (SSE) 2,301 5.4 -12.5°
Maximum altitude 18:33:09 86° 255° (WSW) 775 3.0 -13.2°
Drops below altitude 10° 18:38:16 10° 345° (NNW) 2,316 5.6 -14.0°
Sets 18:40:35 0° 345° (NNW) 3,247 6.4 -14.3°
